Key West, FL

5:52 PM EDT on July 24, 2017 (GMT -0400)
Key West International

Weather History for KEYW - June, 2012

Change the Weather History Date:

Tuesday, June 19, 2012

  Actual Average Record
Temperature  
Mean Temperature 78 °F 84 °F  
Max Temperature 81 °F 88 °F 94 °F (1950)
Min Temperature 74 °F 79 °F 71 °F (1919)
Degree Days  
Heating Degree Days 0 0  
Month to date heating degree days 0 0  
Since 1 June heating degree days 0 0  
Since 1 July heating degree days 28 73  
Cooling Degree Days 13 19  
Month to date cooling degree days 334 341  
Year to date cooling degree days 2024 1771  
Since 1 June cooling degree days 334 341  
Growing Degree Days 27 (Base 50)    
Moisture  
Dew Point 73 °F    
Average Humidity 86    
Maximum Humidity 97    
Minimum Humidity 74    
Precipitation  
Precipitation 3.23 in 0.13 in 3.23 in (2012)
Month to date precipitation 4.80 2.62  
Year to date precipitation 21.90 13.25  
Snow  
Snow 0.00 in - - ()
Month to date snowfall 0.0  
Since 1 June snowfall 0.0  
Since 1 July snowfall 0.0  
Snow Depth 0.00 in    
Sea Level Pressure  
Sea Level Pressure 29.97 in    
Wind  
Wind Speed 12 mph (East)    
Max Wind Speed 23 mph    
Max Gust Speed 36 mph    
Visibility 6 miles    
Events Fog , Rain    
T = Trace of Precipitation, MM = Missing Value Source: NWS Daily Summary

Daily Weather History Graph

Daily Weather History Graph

Search for Another Location

Airport or City:

Trip Planner

Search our weather history database for the weather conditions in past years. The results will help you decide how hot, cold, wet, or windy it might be!

Date:

Astronomy

Jun. 19, 2012 Rise Set
Actual Time 6:38 AM EDT 8:18 PM EDT
Civil Twilight 6:13 AM EDT 8:44 PM EDT
Nautical Twilight 5:42 AM EDT 9:14 PM EDT
Astronomical Twilight 5:09 AM EDT 9:47 PM EDT
Moon 6:38 AM EDT (6/19) 8:26 PM EDT (6/19)
Length of Visible Light 14h 31m
Length of Day
13h 39m
New Moon, 0% of the Moon is Illuminated
Jun 19
New Moon
Jun 26
First Quarter
Jul 3
Full
Jul 10
Last Quarter
Jul 19
New

Hourly Weather History & Observations

Time (EDT) Temp. Heat Index Dew Point Humidity Pressure Visibility Wind Dir Wind Speed Gust Speed Precip Events Conditions
12:53 AM 79.0 °F - 71.1 °F 77% 29.97 in 10.0 mi East 23.0 mph 33.4 mph N/A   Partly Cloudy
1:53 AM 79.0 °F - 73.0 °F 82% 29.95 in 10.0 mi East 11.5 mph 18.4 mph 0.00 in Rain Light Rain
2:53 AM 79.0 °F - 72.0 °F 79% 29.94 in 10.0 mi ENE 13.8 mph 21.9 mph 0.00 in   Clear
3:53 AM 78.1 °F - 72.0 °F 81% 29.93 in 10.0 mi East 15.0 mph 21.9 mph N/A   Partly Cloudy
4:53 AM 78.8 °F - 69.8 °F 74% 29.93 in 10.0 mi East 11.5 mph - N/A   Mostly Cloudy
5:53 AM 78.1 °F - 71.1 °F 79% 29.94 in 10.0 mi ENE 11.5 mph 18.4 mph N/A   Partly Cloudy
6:53 AM 79.0 °F - 72.0 °F 79% 29.94 in 10.0 mi ENE 9.2 mph - 0.00 in   Overcast
7:53 AM 78.8 °F - 73.4 °F 83% 29.95 in 10.0 mi NE 6.9 mph - N/A   Mostly Cloudy
8:53 AM 77.0 °F - 73.0 °F 88% 29.96 in 2.5 mi ESE 21.9 mph 33.4 mph 0.05 in Rain Heavy Rain
8:59 AM 78.8 °F - 73.4 °F 83% 29.96 in 3.0 mi East 13.8 mph 29.9 mph N/A Rain Light Rain
9:53 AM 81.0 °F 85.2 °F 72.0 °F 74% 29.98 in 10.0 mi East 17.3 mph - 0.04 in   Mostly Cloudy
10:27 AM 78.8 °F - 73.4 °F 83% 29.98 in 2.5 mi East 13.8 mph 23.0 mph N/A Rain Rain
10:35 AM 78.8 °F - 73.4 °F 83% 29.98 in 7.0 mi East 13.8 mph 21.9 mph 0.13 in Rain Rain
10:53 AM 78.1 °F - 73.9 °F 87% 29.99 in 10.0 mi East 17.3 mph 25.3 mph 0.16 in Rain Light Rain
11:53 AM 77.0 °F - 73.9 °F 90% 30.01 in 5.0 mi ENE 6.9 mph 17.3 mph 0.10 in Rain Heavy Rain
12:09 PM 77.0 °F - 73.4 °F 89% 30.02 in 2.0 mi ESE 16.1 mph 24.2 mph 0.05 in Rain Rain
12:18 PM 73.4 °F - 73.4 °F 100% 30.02 in 0.5 mi SE 23.0 mph 35.7 mph 0.33 in Fog , Rain Heavy Rain
12:35 PM 75.2 °F - 73.4 °F 94% 30.01 in 1.0 mi East 11.5 mph 20.7 mph 0.97 in Rain Heavy Rain
12:44 PM 75.2 °F - 73.4 °F 94% 30.01 in 1.0 mi East 16.1 mph 25.3 mph 1.18 in Rain Heavy Rain
12:53 PM 75.0 °F - 73.0 °F 94% 30.01 in 1.0 mi East 12.7 mph 21.9 mph 1.54 in Rain Heavy Rain
12:59 PM 75.2 °F - 73.4 °F 94% 30.01 in 1.8 mi ENE 11.5 mph 18.4 mph 0.09 in Rain Heavy Rain
1:02 PM 75.2 °F - 73.4 °F 94% 30.00 in 3.0 mi ENE 12.7 mph - 0.10 in Rain Heavy Rain
1:09 PM 75.2 °F - 73.4 °F 94% 30.00 in 2.0 mi ENE 9.2 mph 17.3 mph 0.13 in Rain Heavy Rain
1:18 PM - - - N/A% 30.00 in 3.0 mi ENE 6.9 mph - 0.14 in Rain Rain
1:30 PM - - - N/A% 30.00 in 0.2 mi East 15.0 mph 18.4 mph 0.20 in Rain Heavy Rain
1:44 PM - - - N/A% 29.99 in 0.2 mi East 11.5 mph 20.7 mph 0.73 in Rain Heavy Rain
1:51 PM - - - N/A% 29.99 in 0.2 mi ENE 9.2 mph 17.3 mph 0.86 in Rain Heavy Rain
1:53 PM - - - N/A% 29.99 in 0.2 mi East 8.1 mph 17.3 mph 0.87 in Rain Rain
2:00 PM - - - N/A% 29.99 in 9.0 mi ENE 9.2 mph - 0.00 in Rain Light Rain
2:09 PM 77.0 °F - 75.2 °F 94% 29.98 in 10.0 mi ENE 9.2 mph 17.3 mph 0.01 in Rain Light Rain
2:53 PM 76.6 °F - 75.0 °F 95% 29.97 in 7.0 mi ENE 10.4 mph 19.6 mph 0.14 in Rain Light Rain
3:53 PM - - - N/A% 29.95 in 10.0 mi ENE 12.7 mph 20.7 mph 0.01 in Rain Light Rain
4:53 PM 80.6 °F 85.5 °F 73.9 °F 80% 29.92 in 10.0 mi ENE 13.8 mph 20.7 mph 0.00 in Rain Light Rain
5:53 PM - - - N/A% 29.93 in 10.0 mi ENE 12.7 mph 20.7 mph 0.00 in   Clear
6:53 PM - - - N/A% 29.91 in 10.0 mi ENE 11.5 mph 19.6 mph N/A   Clear
7:53 PM - - - N/A% 29.93 in 10.0 mi ENE 12.7 mph 18.4 mph N/A   Clear
8:53 PM 80.1 °F 84.5 °F 73.9 °F 81% 29.92 in 10.0 mi ENE 12.7 mph 20.7 mph N/A   Clear
9:53 PM - - - N/A% 29.93 in 10.0 mi ENE 12.7 mph 19.6 mph N/A   Partly Cloudy
10:28 PM - - - N/A% 29.94 in 2.0 mi East 10.4 mph - 0.23 in Rain Heavy Rain
10:35 PM - - - N/A% 29.94 in 4.0 mi East 8.1 mph - 0.28 in Rain Heavy Rain
10:53 PM - - - N/A% 29.95 in 10.0 mi ENE 6.9 mph - 0.32 in Rain Light Rain
11:53 PM - - - N/A% 29.95 in 10.0 mi ESE 13.8 mph - 0.00 in   Scattered Clouds